EW8487 Weather Reports


time (UTC)temp
C
wind
direction
speed
KPH
gust
KPH
rain 1hr
cm
rain 24hr
cm
rain mn
cm
humidity
%
barometer
mb
20260503072555 12 21 0.0 1.6 0.00 0.00 0.00 94 1012.2
20260503054054 11 201 1.6 1.6 0.00 0.00 0.00 95 1011.9
20260503051056 11 269 0.0 0.0 0.00 0.00 0.00 96 1012.1
20260503045555 11 235 0.0 1.6 0.00 0.00 0.00 95 1012.1
20260503044055 11 233 0.0 1.6 0.00 0.00 0.00 95 1012.0
20260503042555 11 253 0.0 1.6 0.00 0.00 0.00 94 1012.0
20260503041055 12 232 0.0 1.6 0.00 0.00 0.00 93 1011.8
20260503035555 12 265 0.0 1.6 0.00 0.00 0.00 93 1011.8
20260503034054 12 283 0.0 1.6 0.00 0.00 0.00 92 1011.6
20260503032631 12 352 0.0 1.6 0.00 0.00 0.00 93 1011.8
20260503031121 12 26 0.0 1.6 0.00 0.00 0.00 93 1011.9
20260503024107 12 203 0.0 1.6 0.00 0.00 0.00 96 1012.4
20260503015554 11 196 1.6 3.2 0.00 0.00 0.00 97 1011.9
20260503011055 12 332 0.0 1.6 0.00 0.00 0.00 96 1012.5
20260503005559 12 184 0.0 1.6 0.00 0.00 0.00 96 1012.8
20260503001055 12 235 0.0 1.6 0.00 0.00 0.00 96 1013.1
20260502235555 12 224 0.0 1.6 0.00 0.00 0.00 96 1013.6
20260502232556 12 177 1.6 3.2 0.00 0.00 0.00 95 1014.0
20260502231055 12 41 0.0 1.6 0.00 0.00 0.00 94 1014.3
20260502225555 12 201 1.6 1.6 0.00 0.00 0.00 93 1014.5
20260502224055 12 34 0.0 1.6 0.00 0.00 0.00 94 1014.3
20260502222554 12 177 1.6 1.6 0.00 0.00 0.00 93 1014.1
20260502221055 12 172 1.6 1.6 0.00 0.00 0.00 93 1013.9
20260502215556 12 184 0.0 1.6 0.00 0.00 0.00 93 1013.8
20260502214055 13 182 1.6 1.6 0.00 0.00 0.00 92 1013.8
20260502212555 13 70 0.0 1.6 0.00 0.00 0.00 92 1013.9
20260502211056 13 228 0.0 0.0 0.00 0.00 0.00 92 1014.0
20260502205555 13 36 0.0 1.6 0.00 0.00 0.00 92 1013.9
20260502204055 13 328 0.0 1.6 0.00 0.00 0.00 92 1013.9
20260502202555 13 15 0.0 1.6 0.00 0.00 0.00 91 1013.8
20260502201055 13 185 0.0 1.6 0.00 0.00 0.00 91 1013.8
20260502195555 13 143 1.6 1.6 0.00 0.00 0.00 90 1013.7
20260502194055 13 164 0.0 1.6 0.00 0.00 0.00 89 1013.8
20260502191055 13 138 0.0 1.6 0.00 0.00 0.00 88 1013.6
20260502185556 14 209 1.6 1.6 0.00 0.00 0.00 87 1013.4
20260502182557 15 151 1.6 1.6 0.00 0.00 0.00 85 1013.6
20260502181131 15 137 0.0 3.2 0.00 0.00 0.00 84 1013.4
20260502164054 16 45 0.0 3.2 0.00 0.00 0.00 79 1013.8
20260502161055 16 71 1.6 3.2 0.00 0.00 0.00 79 1014.2
20260502151055 15 244 0.0 3.2 0.00 0.00 0.00 80 1014.5
20260502122555 16 38 0.0 3.2 0.00 0.00 0.00 71 1015.9
20260502121055 15 68 1.6 3.2 0.00 0.00 0.00 77 1016.0
20260502115555 15 77 1.6 4.8 0.00 0.00 0.00 77 1016.1
20260502114055 15 7 0.0 4.8 0.00 0.00 0.00 79 1016.1
20260502111055 15 182 1.6 4.8 0.00 0.00 0.00 78 1016.4
20260502105555 15 64 3.2 6.4 0.00 0.00 0.00 80 1016.6
20260502104055 15 195 1.6 4.8 0.00 0.00 0.00 79 1016.7
20260502102555 14 209 0.0 4.8 0.00 0.00 0.00 81 1016.9
20260502091055 13 29 1.6 4.8 0.00 0.00 0.00 81 1016.8